KHALIFASAT (43676 NORAD) Tracking and Keplerian Element Data

This shows tracking and keplerian element data for the satellite.

Feedback or suggestion? Click here.




ElementValue
Catalog43676
NameKHALIFASAT
Epoch Orbit449
Epoch Day332.46445205
Epoch Year2018
RAAN82.6651
Inclination97.8329
Eccentricity0.0015485
Argument of Perigee203.3799
Mean Anonmoly156.6717
Mean Motion14.88676093
Decay Rate-1.41E-06
L11 43676U 18084F 18332.46445205 -.00000141 00000-0 -91276-5 0 9992
L22 43676 97.8329 82.6651 0015485 203.3799 156.6717 14.88676093 4492

Live tracking and technical data element details for KHALIFASAT (NORAD 43676). KHALIFASAT can be tracked NOW for your location showing map with azimuth and elevation plus other details from your city location.

Track the satellite on the map from your city or location and see movement details for azimuth, elevation, latitude, longitude, range, height, and movement on the map or in text.







IsCatalogInMostPopularTable: catalog: 43676, numindb: 100
Update: records affected: 1



GetName: 43676 KHALIFASAT

Hit Count: updated at: Fri, 24 May 2019 20:55:33 GMT